Regional Weather Roundup
Issued by NWS

Home | Current Version | Previous Version | Graphics & Text | Print | Product List | Glossary On
Versions: 1 2 3 4 5 6 7 8 9 10 11 12 13 14 15 16 17 18 19 20 21 22 23 24 25 26 27 28
000
ASUS45 KSLC 152010
RWRUT

UTAH REGIONAL WEATHER ROUNDUP
NATIONAL WEATHER SERVICE SALT LAKE CITY UT
100 PM MST FRI DEC 15 2017

UTZ001>011-023>025-152100-

NORTHERN UTAH

CITY           SKY/WX    TMP DP  RH WIND       PRES   REMARKS
BRIGHAM CITY   SUNNY     35  24  66 CALM      30.23F
HILL AFB       MOSUNNY   38  20  47 CALM      30.20F
LOGAN          SUNNY     29  21  72 SW3       30.22F
OGDEN          SUNNY     39  21  48 CALM      30.21F
SALT LAKE CITY PTSUNNY   42  26  53 CALM      30.22F
TOOELE VALLEY  SUNNY     36  27  69 N5        30.23F WCI  32
WENDOVER       MOSUNNY   30  22  72 SE5       30.22F WCI  25
HEBER CITY       N/A     34  19  55 CALM      30.19F
WEST JORDAN    SUNNY     39  25  57 SE3       30.22F

$$

UTZ011>015-024>027-152100-

CENTRAL/NORTHEAST UTAH

CITY           SKY/WX    TMP DP  RH WIND       PRES   REMARKS
PROVO AIRPORT  SUNNY     35  24  64 NW7       30.25F WCI  29
MOAB/CANYONLAN SUNNY     43  13  29 SE5       30.25F
DELTA          SUNNY     36  21  55 CALM      30.23F
PRICE          SUNNY     40  16  37 VRB3      30.24F
RICHFIELD      SUNNY     41  14  33 CALM      30.19F
ROOSEVELT      SUNNY     36  18  48 E3        30.24F
VERNAL         SUNNY     37  19  48 CALM      30.22F

$$

UTZ013>016-019>022-027-152100-

SOUTHERN UTAH

CITY           SKY/WX    TMP DP  RH WIND       PRES   REMARKS
BRYCE CANYON   SUNNY     46  -5  11 SE15      30.25F
CEDAR CITY     SUNNY     47  13  25 CALM      30.18F
MILFORD        SUNNY     43  19  38 SW15      30.18F
ST GEORGE      CLEAR     46  16  30 CALM      30.24F
HANKSVILLE     SUNNY     41  14  33 CALM      30.29F
KANAB          SUNNY     54  -2  10 S6        30.27F
BLANDING         N/A     41   5  22 S6        30.33F

$$

REGIONAL REPORTS     COLORADO/ARIZONA

CITY           SKY/WX    TMP DP  RH WIND       PRES   REMARKS
CRAIG, CO      SUNNY     35  13  40 NE10      30.20F WCI  27
GRAND JUNCTION SUNNY     40  12  32 SE7       30.26F
RIFLE, CO      SUNNY     38   9  30 CALM      30.26F
MONTROSE, CO   SUNNY     41  11  29 NW3       30.27F
CORTEZ, CO     SUNNY     45  -1  14 VRB3      30.24F
PAGE, AZ       SUNNY     44  14  29 VRB3      30.25F
GRAND CANYON   SUNNY     56 -13   5 W7        30.26F
KINGMAN, AZ    SUNNY     61   7  11 NW6       30.20F
FLAGSTAFF, AZ  SUNNY     52 -16   5 NE6       30.26F

$$

REGIONAL REPORTS    NEVADA/IDAHO/WYOMING

CITY           SKY/WX    TMP DP  RH WIND       PRES   REMARKS
LAS VEGAS, NV  MOSUNNY   58  18  21 VRB5      30.20F
ELY, NY        SUNNY     53  -4   9 CALM      30.19F
ELKO, NV       MOSUNNY   30  21  69 W5        30.19F WCI  25
POCATELLO, ID  CLOUDY    23  20  88 NE6       30.20F FOG     WCI  16
BURLEY, ID       N/A     33  25  72 CALM      30.17F
FORT BRIDGER,    N/A     48  -3  12 W26G32    30.16F
EVANSTON, WY   CLOUDY    40  10  29 SW17      30.16F WCI  31
ROCK SPRINGS,  CLOUDY    41   6  23 SW31G39   30.12F

$$




USA.gov is the U.S. government's official web portal to all federal, state and local government web resources and services.